Middlesboro, KY

2:06 AM EST on February 13, 2016 (GMT -0500)
Middlesboro

Weather History for K1A6 - October, 2013

Change the Weather History Date:

Monday, October 7, 2013

  Actual Average (KLOZ) Record (KLOZ)
Temperature  
Mean Temperature 56 °F 60 °F  
Max Temperature 66 °F 72 °F 92 °F (2007)
Min Temperature 46 °F 48 °F 29 °F (1964)
Degree Days  
Heating Degree Days 9 6  
Month to date heating degree days 36  
Since 1 July heating degree days 83  
Cooling Degree Days 0 1  
Month to date cooling degree days 9  
Year to date cooling degree days 1176  
Growing Degree Days 6 (Base 50)    
Moisture  
Dew Point 49 °F    
Average Humidity 80    
Maximum Humidity 99    
Minimum Humidity 49    
Precipitation  
Precipitation 0.06 in 0.09 in 1.31 in (2014)
Month to date precipitation 0.67  
Year to date precipitation 36.72  
Sea Level Pressure  
Sea Level Pressure 30.02 in    
Wind  
Wind Speed 2 mph (North)    
Max Wind Speed 10 mph    
Max Gust Speed 17 mph    
Visibility 10 miles    
Events Rain    
T = Trace of Precipitation, MM = Missing Value Source: NWS Daily Summary

Daily Weather History Graph

Daily Weather History Graph

Search for Another Location

Airport or City:

Trip Planner

Search our weather history database for the weather conditions in past years. The results will help you decide how hot, cold, wet, or windy it might be!

Date:

Astronomy

Oct. 07, 2013 Rise Set
Actual Time 6:35 AM CDT 6:09 PM CDT
Civil Twilight 6:09 AM CDT 6:35 PM CDT
Nautical Twilight 5:39 AM CDT 7:05 PM CDT
Astronomical Twilight 5:09 AM CDT 7:34 PM CDT
Moon 9:19 AM CDT (10/7) 7:58 PM CDT (10/7)
Length of Visible Light 12h 25m
Length of Day
11h 33m
Waxing Crescent, 9% of the Moon is Illuminated
Oct 7
Waxing Crescent
Oct 11
First Quarter
Oct 18
Full
Oct 26
Last Quarter
Nov 3
New

Hourly Weather History & Observations

Time (CDT) Temp. Dew Point Humidity Pressure Visibility Wind Dir Wind Speed Gust Speed Precip Events Conditions
12:15 AM 54.7 °F 52.5 °F 92% 29.95 in 7.0 mi Calm Calm - 0.01 in Rain Rain
12:35 AM 54.7 °F 52.9 °F 94% 29.94 in 7.0 mi East 4.6 mph - 0.02 in   Drizzle
12:55 AM 54.7 °F 52.9 °F 94% 29.94 in 10.0 mi Calm Calm - 0.02 in   Overcast
1:15 AM 54.7 °F 53.2 °F 95% 29.94 in 7.0 mi NE 4.6 mph - N/A   Drizzle
1:35 AM 54.7 °F 53.2 °F 95% 29.93 in 10.0 mi ENE 3.5 mph - 0.01 in   Light Drizzle
1:55 AM 54.5 °F 53.1 °F 95% 29.93 in 10.0 mi Calm Calm - 0.01 in   Overcast
2:15 AM 54.5 °F 53.1 °F 95% 29.93 in 5.0 mi Calm Calm - N/A Rain Rain
2:35 AM 54.5 °F 53.4 °F 96% 29.92 in 10.0 mi Calm Calm - N/A Rain Rain
2:55 AM 54.5 °F 53.8 °F 97% 29.92 in 7.0 mi Calm Calm - 0.01 in Rain Light Rain
3:15 AM 54.7 °F 54.0 °F 97% 29.92 in 10.0 mi Calm Calm - 0.01 in   Drizzle
3:35 AM 54.5 °F 53.6 °F 97% 29.91 in 10.0 mi Calm Calm - 0.01 in   Light Drizzle
3:55 AM 54.7 °F 53.4 °F 96% 29.92 in 10.0 mi Calm Calm - 0.01 in   Light Drizzle
4:15 AM 54.5 °F 53.8 °F 97% 29.93 in 10.0 mi Calm Calm - N/A Rain Rain
4:35 AM 54.7 °F 53.8 °F 97% 29.93 in 10.0 mi Calm Calm - 0.01 in Rain Rain
4:55 AM 54.7 °F 53.8 °F 97% 29.94 in 10.0 mi Calm Calm - 0.01 in   Drizzle
5:15 AM 54.7 °F 54.1 °F 98% 29.95 in 10.0 mi Calm Calm - N/A   Drizzle
5:35 AM 54.7 °F 53.8 °F 97% 29.94 in 10.0 mi Calm Calm - N/A   Overcast
5:55 AM 54.9 °F 54.1 °F 97% 29.94 in 10.0 mi Calm Calm - N/A   Overcast
6:15 AM 54.7 °F 54.0 °F 97% 29.96 in 10.0 mi Calm Calm - N/A   Overcast
6:35 AM 55.0 °F 54.0 °F 96% 29.96 in 10.0 mi Calm Calm - N/A   Overcast
6:55 AM 54.5 °F 51.8 °F 91% 29.97 in 10.0 mi Calm Calm - N/A   Overcast
7:15 AM 53.6 °F 52.7 °F 97% 29.98 in 10.0 mi Calm Calm - N/A   Mostly Cloudy
7:35 AM 53.8 °F 52.2 °F 94% 29.99 in 10.0 mi Calm Calm - N/A   Overcast
7:55 AM 54.0 °F 52.7 °F 95% 29.99 in 10.0 mi Calm Calm - N/A   Scattered Clouds
8:15 AM 54.0 °F 52.7 °F 95% 30.00 in 10.0 mi Calm Calm - N/A   Scattered Clouds
8:35 AM 55.4 °F 52.0 °F 88% 30.01 in 10.0 mi NNW 5.8 mph - N/A   Scattered Clouds
8:55 AM 56.7 °F 48.4 °F 74% 30.02 in 10.0 mi NW 3.5 mph - N/A   Clear
9:15 AM 56.3 °F 48.0 °F 74% 30.02 in 10.0 mi West 4.6 mph - N/A   Scattered Clouds
9:35 AM 56.3 °F 47.8 °F 73% 30.03 in 10.0 mi NW 6.9 mph - N/A   Scattered Clouds
9:55 AM 58.1 °F 48.0 °F 69% 30.03 in 10.0 mi Calm Calm - N/A   Scattered Clouds
10:15 AM 58.8 °F 45.9 °F 62% 30.04 in 10.0 mi NW 4.6 mph - N/A   Scattered Clouds
10:35 AM 58.1 °F 45.0 °F 62% 30.04 in 10.0 mi North 6.9 mph - N/A   Scattered Clouds
10:55 AM 60.1 °F 45.7 °F 59% 30.04 in 10.0 mi Calm Calm - N/A   Scattered Clouds
11:15 AM 60.1 °F 44.4 °F 56% 30.03 in 10.0 mi North 4.6 mph - N/A   Mostly Cloudy
11:35 AM 60.4 °F 44.4 °F 56% 30.03 in 10.0 mi NNW 6.9 mph - N/A   Scattered Clouds
11:55 AM 62.6 °F 46.4 °F 55% 30.03 in 10.0 mi North 8.1 mph - N/A   Clear
12:15 PM 62.1 °F 46.6 °F 57% 30.02 in 10.0 mi NNE 6.9 mph - N/A   Clear
12:35 PM 63.5 °F 46.9 °F 55% 30.02 in 10.0 mi NNE 9.2 mph - N/A   Clear
12:55 PM 63.1 °F 46.0 °F 54% 30.01 in 10.0 mi NE 3.5 mph - N/A   Clear
1:15 PM 64.4 °F 46.2 °F 52% 30.01 in 10.0 mi NNW 9.2 mph 17.3 mph N/A   Scattered Clouds
1:35 PM 64.0 °F 45.5 °F 51% 30.00 in 10.0 mi North 5.8 mph 9.2 mph N/A   Clear
1:55 PM 64.2 °F 46.2 °F 52% 30.00 in 10.0 mi NNE 8.1 mph - N/A   Scattered Clouds
2:15 PM 65.3 °F 45.9 °F 49% 30.01 in 10.0 mi NNW 6.9 mph - N/A   Clear
2:35 PM 65.5 °F 47.1 °F 51% 30.01 in 10.0 mi North 9.2 mph - N/A   Clear
2:55 PM 65.5 °F 46.6 °F 50% 30.01 in 10.0 mi North 10.4 mph 17.3 mph N/A   Clear
3:15 PM 65.5 °F 46.9 °F 51% 30.02 in 10.0 mi NW 8.1 mph - N/A   Clear
3:35 PM 65.5 °F 46.4 °F 50% 30.02 in 10.0 mi NW 6.9 mph - N/A   Clear
3:55 PM 65.7 °F 47.3 °F 51% 30.02 in 10.0 mi NNE 9.2 mph - N/A   Clear
4:15 PM 64.8 °F 47.5 °F 53% 30.02 in 10.0 mi North 4.6 mph - N/A   Clear
4:35 PM 64.4 °F 47.3 °F 54% 30.02 in 10.0 mi North 8.1 mph - N/A   Clear
4:55 PM 63.9 °F 46.9 °F 54% 30.02 in 10.0 mi North 6.9 mph - N/A   Clear
5:15 PM 62.6 °F 46.8 °F 56% 30.03 in 10.0 mi North 5.8 mph - N/A   Clear
5:35 PM 61.9 °F 46.8 °F 58% 30.03 in 10.0 mi North 5.8 mph - N/A   Clear
5:55 PM 60.6 °F 47.7 °F 62% 30.04 in 10.0 mi NNW 3.5 mph - N/A   Clear
6:15 PM 57.7 °F 49.1 °F 73% 30.05 in 10.0 mi NW 3.5 mph - N/A   Clear
6:35 PM 56.1 °F 49.6 °F 79% 30.06 in 10.0 mi WNW 3.5 mph - N/A   Clear
6:55 PM 54.5 °F 49.6 °F 84% 30.07 in 10.0 mi Calm Calm - N/A   Clear
7:15 PM 54.0 °F 49.5 °F 85% 30.07 in 10.0 mi Calm Calm - N/A   Clear
7:35 PM 53.1 °F 50.0 °F 89% 30.08 in 10.0 mi Calm Calm - N/A   Clear
7:55 PM 52.0 °F 49.6 °F 92% 30.09 in 10.0 mi Calm Calm - N/A   Clear
8:15 PM 51.6 °F 49.5 °F 92% 30.10 in 10.0 mi Calm Calm - N/A   Clear
8:35 PM 50.9 °F 49.1 °F 94% 30.10 in 10.0 mi Calm Calm - N/A   Clear
8:55 PM 50.4 °F 49.1 °F 95% 30.11 in 10.0 mi Calm Calm - N/A   Clear
9:15 PM 50.0 °F 48.9 °F 96% 30.12 in 10.0 mi Calm Calm - N/A   Clear
9:35 PM 49.5 °F 48.4 °F 96% 30.12 in 10.0 mi Calm Calm - N/A   Clear
9:55 PM 49.5 °F 48.4 °F 96% 30.13 in 10.0 mi Calm Calm - N/A   Clear
10:15 PM 48.4 °F 47.8 °F 98% 30.14 in 10.0 mi Calm Calm - N/A   Clear
10:35 PM 48.4 °F 47.5 °F 97% 30.15 in 10.0 mi Calm Calm - N/A   Clear
10:55 PM 47.7 °F 47.3 °F 99% 30.15 in 10.0 mi Calm Calm - N/A   Clear
11:15 PM 47.5 °F 46.9 °F 98% 30.15 in 7.0 mi Calm Calm - N/A   Clear
11:35 PM 47.3 °F 46.4 °F 97% 30.14 in 10.0 mi Calm Calm - N/A   Clear
11:55 PM 46.6 °F 46.2 °F 99% 30.14 in 7.0 mi Calm Calm - N/A   Clear